Simultaneous Nadir Overpasses (SNOs) Predictions

Prediction of SNOs between NOAA-19 and NPP Satellite Orbit:

Table of predicted SNOs for the next 14.0 days since TLE Epoch: 12/25/2021
Index Date (NOAA-19) Time (NOAA-19) Lat,Lon (NOAA-19) SZA (NOAA-19 ) Date (NPP) Time (NPP) Lat,Lon (NPP) SZA (NPP ) Distance(km) Time Diff (sec)
1 01/05/2022 23:35:48 -77.30, -17.49 79.14 01/05/2022 23:36:58 -77.35, -15.66 79.28 44.89 70
2 01/06/2022 00:26:41 77.53, 150.91 100.98 01/06/2022 00:27:48 77.54, 150.76 100.98 3.68 67
3 01/06/2022 01:17:42 -77.55, -41.76 79.02 01/06/2022 01:18:32 -77.52, -41.83 79.06 3.43 50
4 01/06/2022 02:08:41 77.54, 125.44 100.98 01/06/2022 02:09:18 77.55, 125.35 100.98 2.60 37
5 01/06/2022 02:59:42 -77.56, -67.23 79.03 01/06/2022 03:00:02 -77.53, -67.25 79.05 2.59 20
6 01/06/2022 03:50:41 77.54, 99.97 100.97 01/06/2022 03:50:48 77.56, 99.94 100.98 1.92 7
7 01/06/2022 04:41:42 -77.56, -92.70 79.03 01/06/2022 04:41:32 -77.54, -92.66 79.05 2.45 10
8 01/06/2022 05:32:41 77.55, 74.50 100.96 01/06/2022 05:32:18 77.57, 74.52 100.99 2.07 23
9 01/06/2022 06:23:42 -77.57,-118.18 79.04 01/06/2022 06:23:02 -77.55,-118.07 79.05 3.09 40
10 01/06/2022 07:14:41 77.56, 49.03 100.96 01/06/2022 07:13:48 77.58, 49.11 100.99 2.91 53
11 01/06/2022 08:05:42 -77.57,-143.65 79.04 01/06/2022 08:04:33 -77.60,-143.68 78.99 3.25 69
12 01/06/2022 08:56:32 77.91, 25.45 101.14 01/06/2022 08:55:26 77.92, 22.08 101.43 78.46 66



Historial Predications of SNOs between NOAA-19 and NPP
